When you browse on this site, cookies collect data to enhance your experience and personalize the content and advertising you see.
Visit our Privacy Policy to learn more. By continuing to use the site, you agree to this use of cookies and data.
  • In Hungary
  • List of Countries
  • For 7 days
  • Water Temperature
  • Weather Map
  • News
  • Weather Widgets
  • user-avatar
    Login

    Hourly Weather Uspenskiy

    Today, 20 October, Sunday

    Time Temperature Precipitation Wind Pressure Humidity
    00:00 +13°C° 0 mm 2 mps 756 mmHg 68%
    01:00 +13°C° 0 mm 2 mps 756 mmHg 68%
    02:00 +13°C° 0 mm 2 mps 756 mmHg 69%
    03:00 +12°C° 0 mm 2 mps 756 mmHg 71%
    04:00 +12°C° 0 mm 2 mps 757 mmHg 73%
    05:00 +12°C° 0 mm 2 mps 757 mmHg 74%
    06:00 +10°C° 0 mm 3 mps 757 mmHg 76%
    07:00 +12°C° 0 mm 3 mps 758 mmHg 71%
    08:00 +13°C° 0 mm 3 mps 758 mmHg 66%
    09:00 +16°C° 0 mm 3 mps 758 mmHg 60%
    10:00 +17°C° 0 mm 3 mps 758 mmHg 55%
    11:00 +19°C° 0 mm 3 mps 758 mmHg 51%
    12:00 +21°C° 0 mm 4 mps 758 mmHg 46%
    13:00 +21°C° 0 mm 4 mps 758 mmHg 45%
    14:00 +21°C° 0 mm 3 mps 758 mmHg 44%
    15:00 +22°C° 0 mm 3 mps 758 mmHg 43%
    16:00 +20°C° 0 mm 3 mps 758 mmHg 48%
    17:00 +18°C° 0 mm 3 mps 758 mmHg 54%
    18:00 +17°C° 0 mm 3 mps 758 mmHg 59%
    19:00 +16°C° 0 mm 3 mps 758 mmHg 61%
    20:00 +15°C° 0 mm 4 mps 758 mmHg 63%
    21:00 +14°C° 0 mm 4 mps 758 mmHg 64%
    22:00 +13°C° 0 mm 4 mps 758 mmHg 67%
    23:00 +13°C° 0 mm 4 mps 759 mmHg 70%

    Tomorrow, 21 October, Monday

    Time Temperature Precipitation Wind Pressure Humidity
    00:00 +13°C° 0 mm 3 mps 759 mmHg 73%
    01:00 +12°C° 0 mm 3 mps 759 mmHg 75%
    02:00 +12°C° 0 mm 3 mps 759 mmHg 77%
    03:00 +11°C° 0 mm 3 mps 759 mmHg 79%
    04:00 +11°C° 0 mm 3 mps 759 mmHg 78%
    05:00 +11°C° 0 mm 3 mps 759 mmHg 77%
    06:00 +10°C° 0 mm 3 mps 759 mmHg 76%
    07:00 +12°C° 0 mm 4 mps 759 mmHg 70%
    08:00 +13°C° 0 mm 4 mps 760 mmHg 64%
    09:00 +15°C° 0 mm 4 mps 760 mmHg 59%
    10:00 +17°C° 0 mm 4 mps 760 mmHg 54%
    11:00 +18°C° 0 mm 4 mps 760 mmHg 49%
    12:00 +20°C° 0 mm 4 mps 760 mmHg 44%
    13:00 +20°C° 0 mm 4 mps 759 mmHg 44%
    14:00 +20°C° 0 mm 4 mps 759 mmHg 43%
    15:00 +20°C° 0 mm 4 mps 759 mmHg 42%
    16:00 +19°C° 0 mm 3 mps 759 mmHg 47%
    17:00 +17°C° 0 mm 3 mps 759 mmHg 52%
    18:00 +16°C° 0 mm 3 mps 758 mmHg 57%
    19:00 +14°C° 0 mm 3 mps 758 mmHg 59%
    20:00 +13°C° 0 mm 3 mps 758 mmHg 60%
    21:00 +13°C° 0 mm 3 mps 758 mmHg 62%
    22:00 +12°C° 0 mm 3 mps 758 mmHg 64%
    23:00 +13°C° 0 mm 2 mps 758 mmHg 67%

    Day after tomorrow, 22 October, Tuesday

    Time Temperature Precipitation Wind Pressure Humidity
    00:00 +12°C° 0 mm 2 mps 758 mmHg 69%
    01:00 +12°C° 0 mm 2 mps 758 mmHg 70%
    02:00 +12°C° 0 mm 2 mps 758 mmHg 71%
    03:00 +10°C° 0 mm 2 mps 758 mmHg 72%
    04:00 +10°C° 0 mm 2 mps 758 mmHg 74%
    05:00 +10°C° 0 mm 2 mps 758 mmHg 75%
    06:00 +10°C° 0 mm 2 mps 758 mmHg 77%
    07:00 +12°C° 0 mm 2 mps 758 mmHg 72%
    08:00 +13°C° 0 mm 1 mps 758 mmHg 67%
    09:00 +15°C° 0 mm 1 mps 758 mmHg 63%
    10:00 +16°C° 0 mm 1 mps 758 mmHg 57%
    11:00 +17°C° 0 mm 2 mps 758 mmHg 51%
    12:00 +19°C° 0 mm 2 mps 758 mmHg 45%
    13:00 +20°C° 0 mm 1 mps 758 mmHg 43%
    14:00 +20°C° 0 mm 1 mps 758 mmHg 42%
    15:00 +20°C° 0 mm 1 mps 757 mmHg 40%
    16:00 +19°C° 0 mm 1 mps 757 mmHg 44%
    17:00 +18°C° 0 mm 1 mps 757 mmHg 48%
    18:00 +16°C° 0 mm 1 mps 757 mmHg 52%
    19:00 +15°C° 0 mm 1 mps 757 mmHg 54%
    20:00 +15°C° 0 mm 1 mps 757 mmHg 56%
    21:00 +14°C° 0 mm 1 mps 757 mmHg 58%
    22:00 +14°C° 0 mm 1 mps 757 mmHg 59%
    23:00 +13°C° 0 mm 1 mps 757 mmHg 60%

    23 October, Wednesday

    Time Temperature Precipitation Wind Pressure Humidity
    00:00 +13°C° 0 mm 1 mps 757 mmHg 60%
    01:00 +12°C° 0 mm 1 mps 757 mmHg 61%
    02:00 +12°C° 0 mm 1 mps 757 mmHg 62%
    03:00 +11°C° 0 mm 0 mps 757 mmHg 63%
    04:00 +11°C° 0 mm 0 mps 757 mmHg 64%
    05:00 +10°C° 0 mm 0 mps 758 mmHg 64%
    06:00 +11°C° 0 mm 1 mps 758 mmHg 65%
    07:00 +13°C° 0 mm 1 mps 758 mmHg 61%
    08:00 +14°C° 0 mm 1 mps 758 mmHg 57%
    09:00 +15°C° 0 mm 1 mps 758 mmHg 53%
    10:00 +16°C° 0 mm 2 mps 758 mmHg 50%
    11:00 +18°C° 0 mm 2 mps 758 mmHg 47%
    12:00 +19°C° 0 mm 2 mps 758 mmHg 44%
    13:00 +19°C° 0 mm 2 mps 758 mmHg 44%
    14:00 +19°C° 0 mm 2 mps 758 mmHg 43%
    15:00 +20°C° 0 mm 2 mps 757 mmHg 43%
    16:00 +18°C° 0 mm 2 mps 757 mmHg 49%
    17:00 +17°C° 0 mm 2 mps 757 mmHg 54%
    18:00 +15°C° 0 mm 2 mps 757 mmHg 60%
    19:00 +15°C° 0 mm 2 mps 757 mmHg 63%
    20:00 +14°C° 0 mm 2 mps 757 mmHg 66%
    21:00 +13°C° 0 mm 2 mps 757 mmHg 69%
    22:00 +13°C° 0 mm 2 mps 757 mmHg 69%
    23:00 +13°C° 0 mm 2 mps 757 mmHg 69%

    24 October, Thursday

    Time Temperature Precipitation Wind Pressure Humidity
    00:00 +12°C° 0 mm 2 mps 757 mmHg 69%
    01:00 +12°C° 0 mm 2 mps 757 mmHg 68%
    02:00 +12°C° 0 mm 2 mps 757 mmHg 67%
    03:00 +10°C° 0 mm 2 mps 757 mmHg 66%
    04:00 +10°C° 0 mm 2 mps 757 mmHg 66%
    05:00 +10°C° 0 mm 2 mps 757 mmHg 66%
    06:00 +10°C° 0 mm 2 mps 757 mmHg 66%
    07:00 +11°C° 0 mm 3 mps 757 mmHg 62%
    08:00 +12°C° 0 mm 3 mps 757 mmHg 57%
    09:00 +13°C° 0 mm 3 mps 757 mmHg 53%
    10:00 +15°C° 0 mm 4 mps 757 mmHg 49%
    11:00 +17°C° 0 mm 4 mps 757 mmHg 44%
    12:00 +19°C° 0 mm 4 mps 756 mmHg 40%
    13:00 +19°C° 0 mm 4 mps 756 mmHg 40%
    14:00 +19°C° 0 mm 4 mps 756 mmHg 40%
    15:00 +20°C° 0 mm 5 mps 756 mmHg 41%
    16:00 +18°C° 0 mm 4 mps 756 mmHg 46%
    17:00 +16°C° 0 mm 3 mps 755 mmHg 51%
    18:00 +14°C° 0 mm 3 mps 755 mmHg 56%
    19:00 +13°C° 0 mm 3 mps 755 mmHg 58%
    20:00 +13°C° 0 mm 3 mps 755 mmHg 61%
    21:00 +12°C° 0 mm 3 mps 756 mmHg 63%
    22:00 +12°C° 0 mm 3 mps 755 mmHg 65%
    23:00 +11°C° 0 mm 3 mps 755 mmHg 67%

    25 October, Friday

    Time Temperature Precipitation Wind Pressure Humidity
    00:00 +11°C° 0 mm 3 mps 755 mmHg 69%
    01:00 +11°C° 0 mm 4 mps 755 mmHg 70%
    02:00 +10°C° 0 mm 4 mps 755 mmHg 71%
    03:00 +10°C° 0 mm 4 mps 755 mmHg 72%
    04:00 +10°C° 0 mm 4 mps 755 mmHg 70%
    05:00 +10°C° 0 mm 4 mps 755 mmHg 69%
    06:00 +10°C° 0 mm 4 mps 755 mmHg 68%
    07:00 +10°C° 0 mm 4 mps 755 mmHg 65%
    08:00 +10°C° 0 mm 5 mps 755 mmHg 62%
    09:00 +12°C° 0 mm 5 mps 755 mmHg 59%
    10:00 +13°C° 0 mm 5 mps 755 mmHg 56%
    11:00 +14°C° 0 mm 6 mps 755 mmHg 54%
    12:00 +16°C° 0 mm 6 mps 755 mmHg 52%
    13:00 +16°C° 0 mm 6 mps 755 mmHg 56%
    14:00 +16°C° 0 mm 5 mps 755 mmHg 60%
    15:00 +16°C° 0 mm 5 mps 754 mmHg 63%
    16:00 +16°C° 0 mm 5 mps 754 mmHg 61%
    17:00 +16°C° 0 mm 5 mps 754 mmHg 59%
    18:00 +17°C° 0 mm 4 mps 754 mmHg 57%
    19:00 +16°C° 0 mm 5 mps 754 mmHg 55%
    20:00 +16°C° 0 mm 5 mps 754 mmHg 52%
    21:00 +16°C° 0 mm 5 mps 754 mmHg 50%
    22:00 +15°C° 0 mm 5 mps 754 mmHg 52%
    23:00 +15°C° 0 mm 5 mps 753 mmHg 55%
    Show more